Regional Weather Roundup
Issued by NWS

Home | Current Version | Previous Version | Text Only | Print | Product List | Glossary On
Versions: 1 2 3 4 5 6 7 8 9 10 11 12 13 14 15 16 17 18 19 20 21 22 23 24 25 26 27 28 29 30 31 32 33 34 35 36 37 38 39 40 41 42 43 44 45 46 47 48 49 50
000
ASUS45 KSLC 260210
RWRUT

UTAH REGIONAL WEATHER ROUNDUP
NATIONAL WEATHER SERVICE SALT LAKE CITY UT
800 PM MDT FRI JUL 25 2014

UTZ001>011-023>025-260300-

NORTHERN UTAH

CITY           SKY/WX    TMP DP  RH WIND       PRES   REMARKS
HILL AFB       CLEAR     87  36  16 N5        29.98F
LOGAN          CLEAR     89  33  13 CALM      29.96F
OGDEN          CLEAR     89  32  13 N7        29.94F
PROVO AIRPORT  PTCLDY    86  48  26 N6        29.97F
SALT LAKE CITY PTCLDY    90  40  17 NW8       29.93S
VERNAL         PTCLDY    90  36  14 SW6       29.99S
WENDOVER       CLEAR     91  32  12 E8        29.93S
HEBER CITY     MOCLDY    86  37  17 S9        30.04S
WEST JORDAN    CLEAR     90  48  24 NW5       29.99R

$$

UTZ012>022-026-027-260300-

SOUTHERN UTAH

CITY           SKY/WX    TMP DP  RH WIND       PRES   REMARKS
BRYCE CANYON   CLOUDY    71  47  42 N13       30.32R
CEDAR CITY     MOCLDY    82  47  29 S17G25    30.11F
MILFORD        PTCLDY    88  45  22 SW23G31   30.03S
MOAB/CYNLANDS  CLEAR     89  41  18 W10       29.99R
PRICE          MOCLDY    84  42  22 SE12      30.12R
ST GEORGE      MOCLDY    97  48  19 NE3       29.93S HX  93
KANAB            N/A     81  52  36 N5        30.14S

$$

REGIONAL REPORTS     COLORADO/ARIZONA

CITY           SKY/WX    TMP DP  RH WIND       PRES   REMARKS
CRAIG, CO      MOCLDY    65  50  58 E7        30.15F
GRAND JUNCTION CLEAR     79  59  50 S5        30.02F
RIFLE          PTCLDY    80  47  31 SE10      30.11F
MONTROSE       CLEAR     81  51  35 SE8       30.14F
CORTEZ         CLEAR     86  42  21 W8        30.11S
PAGE, AZ       PTCLDY    92  48  22 NW8       30.03R
GRAND CANYON   MOCLDY    76  45  33 W7        30.27S
KINGMAN        MOCLDY    87  56  34 SE24      29.99R
FLAGSTAFF      CLOUDY    75  45  34 W7        30.31R

$$

REGIONAL REPORTS    NEVADA/IDAHO/WYOMING

CITY           SKY/WX    TMP DP  RH WIND       PRES   REMARKS
LAS VEGAS, NV  MOCLDY   102  47  15 S14       29.79R HX  98
ELY            CLEAR     89  14   6 S15       30.07S
ELKO           SUNNY     90  15   6 W10       30.01R
POCATELLO, ID  CLEAR     81  31  16 SW13      30.03S
BURLEY         CLEAR     78  33  19 W8        30.01S
EVANSTON, WY   CLEAR     79  32  18 NW14      30.18S
ROCK SPRINGS   CLEAR     82  24  12 NW17G31   30.13R

$$


USA.gov is the U.S. government's official web portal to all federal, state and local government web resources and services.